DECAYED

STARLINK-1636, 46153 (Decayed)

Orbit data source: Space-Track

STARLINK-1636, 46153 was a payload satellite owned by SpaceX/Seattle (US) in LEO that was launched on Tue, 18 Aug 2020 UTC via an FALCON 9 launch vehicle from the Air Force Eastern Test Range (AFETR). Payload-class satellites include a variety of spacecraft equipped with specific instruments for various scientific and technological missions. These include communications satellites like Starlink; space stations such as the ISS; scientific satellites like the Hubble; Earth observation satellites from companies like Planet Labs, Umbra, and HawkEye 360; GPS; miniature CubeSats for education and research; and military/defense satellites.

Not visible in the next 10 days
Identifier
46153, 2020-057AN
Orbit
Decayed
Country
Flag of USUS
Related business
Manufacturer
SpaceX/Seattle
Mission
Decayed Commercial Communications
Bus & Motor
STARLINK, Unknown motor
Mass
260 kg wet, ~248 kg dry
Launch date (UTC)
2020-08-18 (6 years ago)
Launch vehicle
FALCON 9
Launch site
Air Force Eastern Test Range (AFETR)
Object type
Payload
Rocket body
Debris
Shape & HBR
Box + 1 Pan, 10.1 m
Radar Cross Section
13.562 m², Large (>1 m²)

Expand to show TLE details & history
Last TLE update: 6 months ago

TLE from 6 months ago
0 STARLINK-1636
1 46153U 20057AN  25264.99629218  .15091180  12574-4  25307-3 0  9996
2 46153  52.9958 255.7999 0005052 265.6842  94.3629 16.47770364282000
Epoch: 2025-09-21T23:54Z
TLE epoch observation values (Epoch: 2025-09-21T23:54:39.644Z)
Latitude
-0.00009°
Longitude
-103.97217°
Altitude
146.392 km
Speed
7.82 km/s
True Right ascension
17h 03m 11s
True Declination
0° 00' 00"
Sunlit
Object was in daylight at epoch
Visualization orbit readout
Latitude
Unknown
Longitude
Unknown
Altitude
Unknown
Speed
Unknown
Apparent Right ascension
Unknown
Apparent Declination
Unknown
Sunlit
N/A
Visualization observer readout
Local Sidereal Time
00:41:58
Azimuth
Unknown
Elevation
Unknown
Doppler factor
Unknown
Orbital elements
Apogee altitude
148.806 km
Perigee altitude
142.215 km
Semi-major axis
6,523.647 km
Eccentricity
0.00051
Inclination
52.9958°
RAAN
255.7999°
Arg. of periapsis
265.6842°
True anomaly
94.42062°
Mean anomaly
94.3629°
Eccentric anomaly
94.39176°
Mean motion
4.11915 °/min
Orbital period
87.4 mins
BSTAR
0.00025307
Loading maneuver chart data...
Computing Atmospheric mass density...

Documentation

Showing up to 5 results
|